FW6073 Weather Reports


Display with metric or nautical units.
time (UTC)temp
F
wind
direction
speed
MPH
gust
MPH
rain 1hr
in
rain 24hr
in
rain mn
in
humidity
%
barometer
mb
20260502170402 46 273 1.0 6.0 0.00 0.00 0.00 42 1017.0
20260502170323 47 260 1.0 6.0 0.00 0.00 0.00 42 1017.0
20260502170202 47 269 1.0 6.0 0.00 0.00 0.00 41 1017.1
20260502164302 46 5 2.0 5.0 0.00 0.00 0.00 43 1017.2
20260502164202 46 5 2.0 5.0 0.00 0.00 0.00 41 1017.2
20260502164102 46 1 2.0 5.0 0.00 0.00 0.00 44 1017.2
20260502164002 46 358 2.0 4.0 0.00 0.00 0.00 42 1017.2
20260502163902 46 358 1.0 4.0 0.00 0.00 0.00 43 1017.1
20260502163802 46 352 1.0 4.0 0.00 0.00 0.00 41 1017.1
20260502163723 46 349 1.0 4.0 0.00 0.00 0.00 43 1017.1
20260502163602 46 350 1.0 4.0 0.00 0.00 0.00 46 1017.2
20260502163523 46 349 2.0 4.0 0.00 0.00 0.00 46 1017.2
20260502163402 46 348 2.0 4.0 0.00 0.00 0.00 43 1017.2
20260502163302 46 347 1.0 4.0 0.00 0.00 0.00 45 1017.2
20260502163202 45 344 1.0 4.0 0.00 0.00 0.00 50 1017.2
20260502163123 45 345 1.0 4.0 0.00 0.00 0.00 50 1017.3
20260502163002 45 344 2.0 5.0 0.00 0.00 0.00 47 1017.3
20260502162902 45 344 2.0 5.0 0.00 0.00 0.00 44 1017.3
20260502162802 45 347 2.0 5.0 0.00 0.00 0.00 44 1017.3
20260502162723 45 349 2.0 5.0 0.00 0.00 0.00 43 1017.3
20260502162602 45 354 2.0 5.0 0.00 0.00 0.00 45 1017.3
20260502162523 45 357 2.0 5.0 0.00 0.00 0.00 45 1017.3
20260502162402 45 359 2.0 5.0 0.00 0.00 0.00 46 1017.3
20260502162304 45 355 2.0 5.0 0.00 0.00 0.00 46 1017.3
20260502162223 45 357 2.0 5.0 0.00 0.00 0.00 44 1017.3
20260502162102 45 355 2.0 6.0 0.00 0.00 0.00 45 1017.3
20260502162002 45 358 2.0 6.0 0.00 0.00 0.00 45 1017.2
20260502161902 45 359 2.0 6.0 0.00 0.00 0.00 44 1017.2
20260502161802 45 360 2.0 6.0 0.00 0.00 0.00 43 1017.2
20260502161702 45 2 2.0 6.0 0.00 0.00 0.00 43 1017.2
20260502161602 45 356 2.0 6.0 0.00 0.00 0.00 43 1017.2
20260502161502 45 351 2.0 6.0 0.00 0.00 0.00 42 1017.3
20260502161402 45 355 2.0 6.0 0.00 0.00 0.00 43 1017.3
20260502161302 45 357 2.0 6.0 0.00 0.00 0.00 41 1017.3
20260502161202 45 353 2.0 6.0 0.00 0.00 0.00 44 1017.3
20260502161102 45 353 2.0 5.0 0.00 0.00 0.00 44 1017.3
20260502161002 45 348 2.0 5.0 0.00 0.00 0.00 45 1017.3
20260502160902 44 344 2.0 5.0 0.00 0.00 0.00 43 1017.3
20260502160802 44 337 2.0 5.0 0.00 0.00 0.00 45 1017.4
20260502160702 44 329 2.0 5.0 0.00 0.00 0.00 44 1017.4
20260502160602 44 326 2.0 5.0 0.00 0.00 0.00 44 1017.4
20260502160502 44 322 2.0 5.0 0.00 0.00 0.00 44 1017.4
20260502160402 44 313 2.0 5.0 0.00 0.00 0.00 43 1017.4
20260502160302 45 294 1.0 4.0 0.00 0.00 0.00 43 1017.3
20260502160202 45 284 1.0 4.0 0.00 0.00 0.00 43 1017.3
20260502152305 43 355 2.0 9.0 0.00 0.00 0.00 47 1017.3
20260502152202 43 356 2.0 9.0 0.00 0.00 0.00 49 1017.3
20260502152102 44 357 2.0 8.0 0.00 0.00 0.00 47 1017.3
20260502152023 44 358 2.0 8.0 0.00 0.00 0.00 46 1017.3
20260502151902 44 2 2.0 6.0 0.00 0.00 0.00 46 1017.4
20260502151802 44 1 2.0 5.0 0.00 0.00 0.00 46 1017.3
20260502151702 44 360 2.0 6.0 0.00 0.00 0.00 46 1017.3
20260502151602 44 358 2.0 6.0 0.00 0.00 0.00 48 1017.3
20260502151502 44 356 2.0 6.0 0.00 0.00 0.00 47 1017.3
20260502151402 44 360 2.0 6.0 0.00 0.00 0.00 50 1017.2
20260502151302 44 4 2.0 6.0 0.00 0.00 0.00 49 1017.3
20260502151202 43 7 2.0 6.0 0.00 0.00 0.00 46 1017.3
20260502151102 43 9 2.0 6.0 0.00 0.00 0.00 48 1017.3
20260502151002 43 7 2.0 6.0 0.00 0.00 0.00 48 1017.3
20260502150902 43 7 2.0 7.0 0.00 0.00 0.00 46 1017.3
20260502150802 43 9 2.0 7.0 0.00 0.00 0.00 47 1017.3
20260502150723 43 7 2.0 7.0 0.00 0.00 0.00 47 1017.3
20260502150602 43 8 2.0 7.0 0.00 0.00 0.00 48 1017.3
20260502150502 43 7 2.0 7.0 0.00 0.00 0.00 47 1017.3
20260502150402 43 4 3.0 7.0 0.00 0.00 0.00 50 1017.3
20260502150302 43 4 3.0 7.0 0.00 0.00 0.00 48 1017.2
20260502150202 43 2 3.0 7.0 0.00 0.00 0.00 47 1017.2
20260502150123 43 358 3.0 7.0 0.00 0.00 0.00 47 1017.3
20260502130723 40 355 2.0 7.0 0.00 0.00 0.00 62 1017.4
20260502130602 40 355 2.0 7.0 0.00 0.00 0.00 62 1017.4
20260502130502 40 357 1.0 7.0 0.00 0.00 0.00 63 1017.4
20260502130423 40 3 1.0 5.0 0.00 0.00 0.00 63 1017.4
20260502130302 40 16 1.0 4.0 0.00 0.00 0.00 64 1017.4
20260502130202 40 25 1.0 4.0 0.00 0.00 0.00 64 1017.4
20260502123802 38 10 1.0 3.0 0.00 0.00 0.00 68 1017.3
20260502123702 38 12 2.0 3.0 0.00 0.00 0.00 68 1017.3
20260502123623 38 14 2.0 4.0 0.00 0.00 0.00 68 1017.2
20260502123502 38 14 2.0 4.0 0.00 0.00 0.00 68 1017.2
20260502123402 38 16 2.0 4.0 0.00 0.00 0.00 68 1017.3
20260502123302 38 17 2.0 4.0 0.00 0.00 0.00 68 1017.3
20260502123202 38 18 2.0 4.0 0.00 0.00 0.00 68 1017.3
20260502123102 38 18 2.0 4.0 0.00 0.00 0.00 69 1017.3
20260502123002 38 17 2.0 4.0 0.00 0.00 0.00 68 1017.3
20260502122902 38 18 2.0 4.0 0.00 0.00 0.00 68 1017.3
20260502122802 38 14 2.0 5.0 0.00 0.00 0.00 68 1017.3
20260502122702 38 10 2.0 5.0 0.00 0.00 0.00 69 1017.3
20260502122602 38 4 2.0 5.0 0.00 0.00 0.00 68 1017.3
20260502122502 38 1 2.0 5.0 0.00 0.00 0.00 69 1017.3
20260502122402 38 353 2.0 5.0 0.00 0.00 0.00 69 1017.3
20260502122305 38 351 2.0 5.0 0.00 0.00 0.00 69 1017.3
20260502122202 37 348 2.0 5.0 0.00 0.00 0.00 69 1017.3
20260502122123 37 347 2.0 5.0 0.00 0.00 0.00 69 1017.3
20260502122002 37 344 2.0 5.0 0.00 0.00 0.00 69 1017.3
20260502121902 37 345 2.0 5.0 0.00 0.00 0.00 70 1017.3
20260502121802 37 348 2.0 5.0 0.00 0.00 0.00 69 1017.3
20260502121702 37 351 2.0 5.0 0.00 0.00 0.00 70 1017.3
20260502121602 37 353 2.0 5.0 0.00 0.00 0.00 70 1017.2
20260502121502 37 355 2.0 5.0 0.00 0.00 0.00 70 1017.2
20260502121402 37 360 2.0 5.0 0.00 0.00 0.00 70 1017.2
20260502121302 37 360 2.0 4.0 0.00 0.00 0.00 70 1017.2
20260502121223 37 2 2.0 4.0 0.00 0.00 0.00 70 1017.2
20260502121102 37 6 2.0 4.0 0.00 0.00 0.00 71 1017.2
20260502121023 37 9 2.0 4.0 0.00 0.00 0.00 71 1017.2
20260502120902 37 10 2.0 3.0 0.00 0.00 0.00 71 1017.1
20260502120803 36 10 1.0 3.0 0.00 0.00 0.00 71 1017.1
20260502120702 36 11 1.0 3.0 0.00 0.00 0.00 71 1017.1
20260502120602 36 10 2.0 3.0 0.00 0.00 0.00 71 1017.1
20260502120502 36 8 1.0 3.0 0.00 0.00 0.00 72 1017.1
20260502120402 36 5 1.0 3.0 0.00 0.00 0.00 72 1017.1
20260502120302 36 5 1.0 3.0 0.00 0.00 0.00 72 1017.1
20260502120202 36 3 1.0 3.0 0.00 0.00 0.00 72 1017.1
20260502115902 36 3 1.0 4.0 0.00 0.00 0.00 72 1017.1
20260502115802 36 3 1.0 4.0 0.00 0.00 0.00 73 1017.1
20260502115702 36 359 1.0 4.0 0.00 0.00 0.00 73 1017.1
20260502115602 36 360 1.0 4.0 0.00 0.00 0.00 73 1017.1
20260502115502 36 359 1.0 4.0 0.00 0.00 0.00 74 1017.1
20260502115402 36 359 1.0 4.0 0.00 0.00 0.00 74 1017.1
20260502115305 36 359 2.0 4.0 0.00 0.00 0.00 73 1017.1
20260502115202 36 358 2.0 4.0 0.00 0.00 0.00 74 1017.1
20260502115102 35 355 2.0 4.0 0.00 0.00 0.00 73 1017.1
20260502115002 35 355 1.0 4.0 0.00 0.00 0.00 74 1017.1
20260502114902 35 355 1.0 4.0 0.00 0.00 0.00 74 1017.1
20260502114802 35 356 1.0 4.0 0.00 0.00 0.00 74 1017.1
20260502114702 35 358 1.0 4.0 0.00 0.00 0.00 74 1017.1
20260502114623 35 359 1.0 4.0 0.00 0.00 0.00 74 1017.1
20260502114502 35 358 1.0 4.0 0.00 0.00 0.00 74 1017.1
20260502114423 35 358 1.0 4.0 0.00 0.00 0.00 74 1017.1
20260502114202 35 357 1.0 2.0 0.00 0.00 0.00 76 1017.1
20260502114102 35 358 1.0 2.0 0.00 0.00 0.00 76 1017.1
20260502114002 35 359 1.0 2.0 0.00 0.00 0.00 75 1017.1
20260502113923 34 359 1.0 2.0 0.00 0.00 0.00 76 1017.1
20260502113802 34 1 1.0 2.0 0.00 0.00 0.00 76 1017.1
20260502113702 34 2 1.0 2.0 0.00 0.00 0.00 76 1017.0
20260502113602 34 358 0.0 2.0 0.00 0.00 0.00 77 1017.0
20260502113502 34 359 0.0 2.0 0.00 0.00 0.00 77 1017.1
20260502113423 34 360 0.0 2.0 0.00 0.00 0.00 77 1017.1
20260502113302 34 2 0.0 2.0 0.00 0.00 0.00 77 1017.1
20260502113202 34 3 0.0 1.0 0.00 0.00 0.00 78 1017.1
20260502113104 34 4 0.0 1.0 0.00 0.00 0.00 78 1017.0
20260502113002 33 4 0.0 1.0 0.00 0.00 0.00 79 1017.0
20260502112902 33 359 0.0 1.0 0.00 0.00 0.00 79 1017.0
20260502112823 33 348 0.0 1.0 0.00 0.00 0.00 79 1017.0
20260502112723 33 348 0.0 1.0 0.00 0.00 0.00 79 1017.1
20260502112602 33 0 0.0 0.0 0.00 0.00 0.00 80 1017.0
20260502112502 33 0 0.0 0.0 0.00 0.00 0.00 80 1017.0
20260502112402 33 0 0.0 0.0 0.00 0.00 0.00 80 1017.1
20260502112305 33 0 0.0 0.0 0.00 0.00 0.00 80 1017.1
20260502112202 33 0 0.0 0.0 0.00 0.00 0.00 80 1017.0
20260502112102 33 0 0.0 0.0 0.00 0.00 0.00 80 1016.9
20260502112002 33 0 0.0 0.0 0.00 0.00 0.00 80 1016.9
20260502111902 33 348 0.0 1.0 0.00 0.00 0.00 80 1016.9
20260502111802 33 348 0.0 1.0 0.00 0.00 0.00 80 1016.9
20260502111702 33 348 0.0 1.0 0.00 0.00 0.00 80 1016.9
20260502111602 33 351 0.0 1.0 0.00 0.00 0.00 79 1016.9
20260502111502 32 351 0.0 1.0 0.00 0.00 0.00 79 1016.9
20260502111423 32 351 0.0 1.0 0.00 0.00 0.00 80 1016.9
20260502111302 32 351 0.0 1.0 0.00 0.00 0.00 80 1016.8
20260502111202 32 351 0.0 1.0 0.00 0.00 0.00 80 1016.8
20260502111102 32 351 0.0 1.0 0.00 0.00 0.00 80 1016.8
20260502111002 32 351 0.0 1.0 0.00 0.00 0.00 81 1016.8
20260502110902 32 352 0.0 1.0 0.00 0.00 0.00 81 1016.9
20260502110802 32 352 0.0 1.0 0.00 0.00 0.00 81 1016.8
20260502110723 32 352 0.0 1.0 0.00 0.00 0.00 81 1016.8
20260502110602 32 0 0.0 0.0 0.00 0.00 0.00 82 1016.9
20260502110523 31 0 0.0 0.0 0.00 0.00 0.00 82 1016.9
20260502110402 31 0 0.0 0.0 0.00 0.00 0.00 83 1016.9
20260502110302 31 0 0.0 0.0 0.00 0.00 0.00 83 1016.9
20260502110202 31 0 0.0 0.0 0.00 0.00 0.00 84 1016.9
20260502110002 31 0 0.0 0.0 0.00 0.00 0.00 84 1016.8
20260502105902 31 0 0.0 0.0 0.00 0.00 0.00 84 1016.9
20260502105802 31 0 0.0 0.0 0.00 0.00 0.00 84 1016.8
20260502105702 31 0 0.0 0.0 0.00 0.00 0.00 84 1016.8
20260502105602 31 0 0.0 0.0 0.00 0.00 0.00 85 1016.9
20260502105502 31 0 0.0 0.0 0.00 0.00 0.00 85 1016.9
20260502105402 31 0 0.0 0.0 0.00 0.00 0.00 85 1016.9
20260502105305 31 0 0.0 0.0 0.00 0.00 0.00 85 1016.8
20260502105202 31 0 0.0 0.0 0.00 0.00 0.00 85 1016.8
20260502105123 31 0 0.0 0.0 0.00 0.00 0.00 84 1016.8
20260502105002 31 0 0.0 0.0 0.00 0.00 0.00 84 1016.8
20260502104902 31 0 0.0 0.0 0.00 0.00 0.00 84 1016.8
20260502104802 31 0 0.0 0.0 0.00 0.00 0.00 84 1016.8
20260502104702 31 0 0.0 0.0 0.00 0.00 0.00 84 1016.8
20260502104602 31 0 0.0 0.0 0.00 0.00 0.00 84 1016.8
20260502104502 31 0 0.0 0.0 0.00 0.00 0.00 84 1016.8
20260502104423 31 0 0.0 0.0 0.00 0.00 0.00 84 1016.8
20260502104302 31 0 0.0 0.0 0.00 0.00 0.00 84 1016.7
20260502104202 31 0 0.0 0.0 0.00 0.00 0.00 84 1016.8
20260502104124 31 0 0.0 0.0 0.00 0.00 0.00 84 1016.8
20260502104002 31 0 0.0 0.0 0.00 0.00 0.00 84 1016.7
20260502103902 31 0 0.0 0.0 0.00 0.00 0.00 84 1016.7
20260502103802 31 0 0.0 0.0 0.00 0.00 0.00 84 1016.7
20260502103702 31 0 0.0 0.0 0.00 0.00 0.00 84 1016.8
20260502103602 31 0 0.0 0.0 0.00 0.00 0.00 84 1016.8
20260502103502 31 0 0.0 0.0 0.00 0.00 0.00 83 1016.8
20260502103402 31 0 0.0 0.0 0.00 0.00 0.00 84 1016.8
20260502103302 32 0 0.0 0.0 0.00 0.00 0.00 84 1016.8
20260502103202 32 0 0.0 0.0 0.00 0.00 0.00 83 1016.8
20260502103102 32 0 0.0 0.0 0.00 0.00 0.00 83 1016.8
20260502103002 32 0 0.0 0.0 0.00 0.00 0.00 83 1016.8
20260502102923 32 0 0.0 0.0 0.00 0.00 0.00 83 1016.8
20260502102823 32 0 0.0 0.0 0.00 0.00 0.00 83 1016.8
20260502102702 32 0 0.0 0.0 0.00 0.00 0.00 83 1016.8
20260502102602 32 0 0.0 0.0 0.00 0.00 0.00 83 1016.8
20260502102502 32 0 0.0 0.0 0.00 0.00 0.00 82 1016.8
20260502102402 32 0 0.0 0.0 0.00 0.00 0.00 82 1016.8
20260502102305 32 0 0.0 0.0 0.00 0.00 0.00 82 1016.8
20260502102203 32 0 0.0 0.0 0.00 0.00 0.00 82 1016.7
20260502102102 32 0 0.0 0.0 0.00 0.00 0.00 82 1016.7
20260502102002 32 0 0.0 0.0 0.00 0.00 0.00 82 1016.7
20260502101802 32 0 0.0 0.0 0.00 0.00 0.00 82 1016.7
20260502101602 32 0 0.0 0.0 0.00 0.00 0.00 82 1016.7
20260502101523 32 0 0.0 0.0 0.00 0.00 0.00 82 1016.7
20260502101402 32 0 0.0 0.0 0.00 0.00 0.00 82 1016.6
20260502101302 32 0 0.0 0.0 0.00 0.00 0.00 82 1016.6
20260502101202 32 0 0.0 0.0 0.00 0.00 0.00 82 1016.7
20260502101123 32 0 0.0 0.0 0.00 0.00 0.00 82 1016.7
20260502101002 32 0 0.0 0.0 0.00 0.00 0.00 82 1016.7
20260502100902 32 0 0.0 0.0 0.00 0.00 0.00 82 1016.6
20260502100823 32 0 0.0 0.0 0.00 0.00 0.00 82 1016.6
20260502100702 32 0 0.0 0.0 0.00 0.00 0.00 82 1016.6
20260502100602 32 0 0.0 0.0 0.00 0.00 0.00 82 1016.6
20260502100523 32 0 0.0 0.0 0.00 0.00 0.00 82 1016.6
20260502100402 32 0 0.0 0.0 0.00 0.00 0.00 81 1016.6
20260502100302 32 0 0.0 0.0 0.00 0.00 0.00 81 1016.6
20260502100202 32 0 0.0 0.0 0.00 0.00 0.00 81 1016.6
20260502091523 34 0 0.0 0.0 0.00 0.00 0.00 77 1016.4
20260502091402 35 0 0.0 0.0 0.00 0.00 0.00 77 1016.4
20260502091303 35 0 0.0 0.0 0.00 0.00 0.00 77 1016.3
20260502091202 35 0 0.0 0.0 0.00 0.00 0.00 76 1016.3
20260502091124 35 0 0.0 0.0 0.00 0.00 0.00 76 1016.3
20260502091002 35 0 0.0 0.0 0.00 0.00 0.00 76 1016.3
20260502090902 35 0 0.0 0.0 0.00 0.00 0.00 76 1016.3
20260502090802 35 0 0.0 0.0 0.00 0.00 0.00 76 1016.3
20260502090723 35 352 0.0 1.0 0.00 0.00 0.00 75 1016.3
20260502090602 35 352 0.0 1.0 0.00 0.00 0.00 75 1016.3
20260502090523 36 352 0.0 1.0 0.00 0.00 0.00 74 1016.3
20260502090423 36 352 0.0 1.0 0.00 0.00 0.00 74 1016.3
20260502090302 36 352 0.0 1.0 0.00 0.00 0.00 74 1016.2
20260502090223 36 352 0.0 1.0 0.00 0.00 0.00 73 1016.3
20260502071523 39 350 0.0 1.0 0.00 0.00 0.00 64 1015.8
20260502071402 39 350 0.0 1.0 0.00 0.00 0.00 64 1015.8
20260502071302 39 350 0.0 1.0 0.00 0.00 0.00 62 1015.8
20260502071223 39 350 0.0 1.0 0.00 0.00 0.00 62 1015.8
20260502071123 39 350 0.0 1.0 0.00 0.00 0.00 63 1015.8
20260502071002 39 350 0.0 1.0 0.00 0.00 0.00 62 1015.9
20260502070902 39 350 0.0 1.0 0.00 0.00 0.00 63 1015.9
20260502070802 39 350 0.0 1.0 0.00 0.00 0.00 63 1015.9
20260502070702 39 350 0.0 1.0 0.00 0.00 0.00 63 1015.9
20260502070602 39 350 0.0 1.0 0.00 0.00 0.00 62 1015.9
20260502070502 39 350 0.0 1.0 0.00 0.00 0.00 63 1015.9
20260502070402 39 350 0.0 1.0 0.00 0.00 0.00 62 1015.9
20260502070302 39 350 0.0 1.0 0.00 0.00 0.00 62 1016.0
20260502070202 39 0 0.0 0.0 0.00 0.00 0.00 65 1016.0
20260502070023 39 0 0.0 0.0 0.00 0.00 0.00 63 1015.9
20260502065924 39 0 0.0 0.0 0.00 0.00 0.00 63 1015.9
20260502065802 39 0 0.0 0.0 0.00 0.00 0.00 63 1015.9
20260502065702 39 0 0.0 0.0 0.00 0.00 0.00 63 1015.9
20260502065623 39 0 0.0 0.0 0.00 0.00 0.00 63 1015.9
20260502065502 39 0 0.0 0.0 0.00 0.00 0.00 62 1015.9
20260502065423 39 0 0.0 0.0 0.00 0.00 0.00 64 1015.9
20260502065305 40 0 0.0 0.0 0.00 0.00 0.00 64 1016.0
20260502065202 39 0 0.0 0.0 0.00 0.00 0.00 63 1016.0
20260502065102 39 0 0.0 0.0 0.00 0.00 0.00 62 1016.0
20260502065002 40 0 0.0 0.0 0.00 0.00 0.00 62 1016.0
20260502064902 40 0 0.0 0.0 0.00 0.00 0.00 62 1016.0
20260502064823 40 0 0.0 0.0 0.00 0.00 0.00 63 1016.0
20260502064702 40 0 0.0 0.0 0.00 0.00 0.00 64 1016.0
20260502064602 40 0 0.0 0.0 0.00 0.00 0.00 65 1016.0
20260502064502 40 0 0.0 0.0 0.00 0.00 0.00 63 1016.0
20260502064402 40 0 0.0 0.0 0.00 0.00 0.00 63 1016.0
20260502064302 40 0 0.0 0.0 0.00 0.00 0.00 63 1016.0
20260502064202 40 0 0.0 0.0 0.00 0.00 0.00 62 1016.0
20260502064102 40 0 0.0 0.0 0.00 0.00 0.00 63 1016.0
20260502064023 40 0 0.0 0.0 0.00 0.00 0.00 63 1016.0
20260502063902 40 0 0.0 0.0 0.00 0.00 0.00 64 1016.1
20260502063802 40 350 0.0 1.0 0.00 0.00 0.00 63 1016.1
20260502063702 40 350 0.0 1.0 0.00 0.00 0.00 62 1016.1
20260502063602 40 350 0.0 1.0 0.00 0.00 0.00 63 1016.1
20260502063502 40 350 0.0 1.0 0.00 0.00 0.00 64 1016.1
20260502063423 40 350 0.0 1.0 0.00 0.00 0.00 64 1016.1
20260502063302 40 350 0.0 1.0 0.00 0.00 0.00 65 1016.0
20260502063202 40 350 0.0 1.0 0.00 0.00 0.00 65 1016.1
20260502063102 40 350 0.0 1.0 0.00 0.00 0.00 65 1016.1
20260502063002 40 350 0.0 1.0 0.00 0.00 0.00 64 1016.0
20260502062902 40 350 0.0 1.0 0.00 0.00 0.00 63 1016.0
20260502062802 40 350 0.0 1.0 0.00 0.00 0.00 65 1016.1
20260502062723 40 350 0.0 1.0 0.00 0.00 0.00 66 1016.1
20260502062623 40 350 0.0 1.0 0.00 0.00 0.00 64 1016.1
20260502062502 40 350 0.0 1.0 0.00 0.00 0.00 64 1016.1
20260502062402 40 350 0.0 1.0 0.00 0.00 0.00 64 1016.1
20260502062305 40 350 0.0 1.0 0.00 0.00 0.00 63 1016.1
20260502062202 40 350 0.0 1.0 0.00 0.00 0.00 65 1016.2
20260502062102 40 350 0.0 1.0 0.00 0.00 0.00 64 1016.2
20260502062002 40 350 0.0 1.0 0.00 0.00 0.00 65 1016.1
20260502061902 40 0 0.0 0.0 0.00 0.00 0.00 64 1016.2
20260502061802 40 0 0.0 0.0 0.00 0.00 0.00 66 1016.2
20260502061702 40 0 0.0 0.0 0.00 0.00 0.00 65 1016.2
20260502061523 40 0 0.0 0.0 0.00 0.00 0.00 64 1016.2
20260502061402 40 0 0.0 0.0 0.00 0.00 0.00 64 1016.2
20260502061302 40 0 0.0 0.0 0.00 0.00 0.00 64 1016.2
20260502061223 40 0 0.0 0.0 0.00 0.00 0.00 63 1016.2
20260502061102 40 0 0.0 0.0 0.00 0.00 0.00 67 1016.2
20260502061023 40 0 0.0 0.0 0.00 0.00 0.00 68 1016.2
20260502060923 40 0 0.0 0.0 0.00 0.00 0.00 66 1016.2
20260502060802 40 0 0.0 0.0 0.00 0.00 0.00 67 1016.2
20260502060702 40 0 0.0 0.0 0.00 0.00 0.00 67 1016.3
20260502060602 40 0 0.0 0.0 0.00 0.00 0.00 65 1016.3
20260502060502 40 0 0.0 0.0 0.00 0.00 0.00 64 1016.3
20260502060402 40 0 0.0 0.0 0.00 0.00 0.00 63 1016.3
20260502060323 40 0 0.0 0.0 0.00 0.00 0.00 63 1016.3
20260502060202 40 0 0.0 0.0 0.00 0.00 0.00 63 1016.2
20260502060002 40 0 0.0 0.0 0.00 0.00 0.00 63 1016.3
20260502055902 40 0 0.0 0.0 0.00 0.00 0.00 62 1016.3
20260502055823 40 0 0.0 0.0 0.00 0.00 0.00 64 1016.3
20260502055702 40 0 0.0 0.0 0.00 0.00 0.00 64 1016.3
20260502055602 40 0 0.0 0.0 0.00 0.00 0.00 64 1016.3
20260502055502 40 0 0.0 0.0 0.00 0.00 0.00 64 1016.3
20260502055402 40 0 0.0 0.0 0.00 0.00 0.00 63 1016.3
20260502055305 40 0 0.0 0.0 0.00 0.00 0.00 64 1016.3
20260502055202 40 0 0.0 0.0 0.00 0.00 0.00 65 1016.3
20260502055102 40 0 0.0 0.0 0.00 0.00 0.00 63 1016.3
20260502055002 40 0 0.0 0.0 0.00 0.00 0.00 64 1016.3
20260502054923 40 0 0.0 0.0 0.00 0.00 0.00 62 1016.3
20260502054802 40 0 0.0 0.0 0.00 0.00 0.00 62 1016.3
20260502054702 40 0 0.0 0.0 0.00 0.00 0.00 62 1016.3
20260502054602 40 0 0.0 0.0 0.00 0.00 0.00 62 1016.3
20260502054502 40 0 0.0 0.0 0.00 0.00 0.00 63 1016.3
20260502054423 40 0 0.0 0.0 0.00 0.00 0.00 62 1016.3
20260502054302 40 0 0.0 0.0 0.00 0.00 0.00 63 1016.4
20260502054202 40 0 0.0 0.0 0.00 0.00 0.00 62 1016.4
20260502054102 40 0 0.0 0.0 0.00 0.00 0.00 63 1016.3
20260502054003 40 0 0.0 0.0 0.00 0.00 0.00 63 1016.3
20260502053902 40 0 0.0 0.0 0.00 0.00 0.00 62 1016.4
20260502053802 40 0 0.0 0.0 0.00 0.00 0.00 62 1016.4
20260502053723 40 0 0.0 0.0 0.00 0.00 0.00 62 1016.4
20260502053602 40 350 0.0 1.0 0.00 0.00 0.00 62 1016.4
20260502053502 40 347 0.0 1.0 0.00 0.00 0.00 62 1016.4
20260502053402 40 347 0.0 1.0 0.00 0.00 0.00 62 1016.3
20260502053302 40 347 0.0 1.0 0.00 0.00 0.00 62 1016.4
20260502053202 40 347 0.0 1.0 0.00 0.00 0.00 62 1016.4
20260502053102 40 347 0.0 1.0 0.00 0.00 0.00 62 1016.4
20260502053002 40 351 0.0 1.0 0.00 0.00 0.00 61 1016.4
20260502052902 40 358 0.0 1.0 0.00 0.00 0.00 62 1016.4
20260502052802 40 355 1.0 2.0 0.00 0.00 0.00 62 1016.4
20260502052702 40 353 1.0 2.0 0.00 0.00 0.00 62 1016.4
20260502052602 40 352 1.0 2.0 0.00 0.00 0.00 61 1016.3
20260502052502 40 352 1.0 2.0 0.00 0.00 0.00 60 1016.4
20260502052402 40 352 1.0 2.0 0.00 0.00 0.00 61 1016.4
20260502052323 40 351 1.0 2.0 0.00 0.00 0.00 63 1016.4
20260502052202 40 352 1.0 2.0 0.00 0.00 0.00 62 1016.4
20260502052102 40 352 1.0 2.0 0.00 0.00 0.00 61 1016.4
20260502052002 40 350 1.0 2.0 0.00 0.00 0.00 61 1016.4
20260502051923 40 347 1.0 2.0 0.00 0.00 0.00 61 1016.4
20260502051823 40 345 0.0 2.0 0.00 0.00 0.00 61 1016.4
20260502051702 40 345 0.0 2.0 0.00 0.00 0.00 61 1016.4
20260502051603 40 347 0.0 2.0 0.00 0.00 0.00 62 1016.4
20260502051502 40 348 0.0 2.0 0.00 0.00 0.00 60 1016.4
20260502051423 40 350 0.0 2.0 0.00 0.00 0.00 60 1016.4
20260502051302 40 356 0.0 1.0 0.00 0.00 0.00 62 1016.4
20260502051202 40 5 0.0 1.0 0.00 0.00 0.00 63 1016.3
20260502051102 40 6 0.0 1.0 0.00 0.00 0.00 61 1016.3
20260502051002 40 6 0.0 1.0 0.00 0.00 0.00 62 1016.3
20260502050902 40 6 0.0 1.0 0.00 0.00 0.00 61 1016.3
20260502050802 40 10 0.0 1.0 0.00 0.00 0.00 62 1016.3
20260502050702 40 10 0.0 1.0 0.00 0.00 0.00 63 1016.4
20260502050602 40 11 0.0 1.0 0.00 0.00 0.00 61 1016.4
20260502050502 40 9 0.0 1.0 0.00 0.00 0.00 61 1016.3
20260502050402 40 8 0.0 1.0 0.00 0.00 0.00 61 1016.3
20260502050302 40 5 0.0 1.0 0.00 0.00 0.00 62 1016.4
20260502050223 40 360 0.0 2.0 0.00 0.00 0.00 63 1016.4
20260502050123 40 356 0.0 2.0 0.00 0.00 0.00 62 1016.4
20260502050002 40 350 1.0 3.0 0.00 0.00 0.00 62 1016.3
20260502045923 40 350 1.0 4.0 0.00 0.00 0.00 61 1016.3
20260502045802 41 349 1.0 4.0 0.00 0.00 0.00 61 1016.3
20260502045702 40 349 1.0 4.0 0.00 0.00 0.00 63 1016.3
20260502045602 40 348 1.0 4.0 0.00 0.00 0.00 62 1016.3
20260502045502 40 346 1.0 4.0 0.00 0.00 0.00 63 1016.3
20260502045402 40 345 1.0 4.0 0.00 0.00 0.00 62 1016.2
20260502045305 40 344 1.0 4.0 0.00 0.00 0.00 62 1016.2
20260502045223 40 345 1.0 4.0 0.00 0.00 0.00 62 1016.3
20260502045102 41 341 1.0 4.0 0.00 0.00 0.00 62 1016.3
20260502045002 40 340 0.0 4.0 0.00 0.00 0.00 64 1016.2
20260502044902 41 336 0.0 1.0 0.00 0.00 0.00 66 1016.2
20260502044802 41 337 0.0 1.0 0.00 0.00 0.00 64 1016.2
20260502044723 41 337 0.0 1.0 0.00 0.00 0.00 64 1016.2
20260502044602 40 341 0.0 1.0 0.00 0.00 0.00 62 1016.2
20260502044502 40 340 0.0 1.0 0.00 0.00 0.00 63 1016.1
20260502044402 41 341 0.0 1.0 0.00 0.00 0.00 64 1016.1
20260502044302 40 340 0.0 1.0 0.00 0.00 0.00 65 1016.1
20260502044202 40 334 0.0 1.0 0.00 0.00 0.00 64 1016.1
20260502044123 40 340 0.0 1.0 0.00 0.00 0.00 64 1016.1
20260502044023 41 356 0.0 1.0 0.00 0.00 0.00 66 1016.0
20260502043902 41 356 0.0 1.0 0.00 0.00 0.00 66 1016.0
20260502043802 41 2 0.0 1.0 0.00 0.00 0.00 67 1016.0
20260502043702 41 2 0.0 1.0 0.00 0.00 0.00 67 1016.0
20260502043602 41 344 0.0 1.0 0.00 0.00 0.00 67 1016.0
20260502043502 41 0 0.0 0.0 0.00 0.00 0.00 67 1016.0
20260502043402 41 0 0.0 0.0 0.00 0.00 0.00 66 1016.0
20260502043323 41 0 0.0 0.0 0.00 0.00 0.00 66 1016.0
20260502043202 41 0 0.0 0.0 0.00 0.00 0.00 65 1015.9
20260502043102 41 0 0.0 0.0 0.00 0.00 0.00 66 1016.0
20260502043002 41 0 0.0 0.0 0.00 0.00 0.00 68 1016.0
20260502042902 41 0 0.0 0.0 0.00 0.00 0.00 66 1015.9
20260502042804 41 0 0.0 0.0 0.00 0.00 0.00 68 1015.9
20260502042702 41 344 0.0 2.0 0.00 0.00 0.00 67 1015.9
20260502042623 41 344 0.0 2.0 0.00 0.00 0.00 66 1015.9
20260502042502 41 349 0.0 2.0 0.00 0.00 0.00 65 1015.9
20260502042402 41 349 0.0 2.0 0.00 0.00 0.00 66 1015.9
20260502042305 41 349 0.0 2.0 0.00 0.00 0.00 66 1015.9
20260502042202 41 349 0.0 2.0 0.00 0.00 0.00 65 1015.9
20260502042102 41 349 0.0 2.0 0.00 0.00 0.00 64 1015.9
20260502042002 41 349 0.0 2.0 0.00 0.00 0.00 65 1015.9
20260502041902 41 349 0.0 2.0 0.00 0.00 0.00 65 1015.8
20260502041802 41 349 0.0 2.0 0.00 0.00 0.00 65 1015.9
20260502041702 41 354 0.0 2.0 0.00 0.00 0.00 65 1015.9
20260502041602 41 15 0.0 2.0 0.00 0.00 0.00 68 1015.8
20260502041502 41 0 0.0 0.0 0.00 0.00 0.00 67 1015.8
20260502041402 41 0 0.0 0.0 0.00 0.00 0.00 67 1015.8
20260502041302 41 0 0.0 0.0 0.00 0.00 0.00 67 1015.8
20260502041202 41 0 0.0 0.0 0.00 0.00 0.00 66 1015.8
20260502041102 41 0 0.0 0.0 0.00 0.00 0.00 67 1015.8
20260502041023 41 0 0.0 0.0 0.00 0.00 0.00 66 1015.8
20260502040902 41 133 0.0 1.0 0.00 0.00 0.00 66 1015.8
20260502040802 41 133 0.0 1.0 0.00 0.00 0.00 66 1015.8
20260502040702 41 133 0.0 1.0 0.00 0.00 0.00 65 1015.8
20260502040602 41 133 0.0 1.0 0.00 0.00 0.00 66 1015.8
20260502040523 41 126 0.0 1.0 0.00 0.00 0.00 66 1015.8
20260502040402 41 53 0.0 2.0 0.00 0.00 0.00 66 1015.8
20260502040302 41 53 0.0 2.0 0.00 0.00 0.00 66 1015.8
20260502040203 41 10 0.0 2.0 0.00 0.00 0.00 66 1015.8
20260502040002 41 358 1.0 2.0 0.00 0.00 0.00 66 1015.8
20260502035902 41 348 1.0 2.0 0.00 0.00 0.00 66 1015.8
20260502035802 41 347 1.0 2.0 0.00 0.00 0.00 65 1015.8
20260502035702 41 345 1.0 2.0 0.00 0.00 0.00 65 1015.7
20260502035623 41 350 1.0 2.0 0.00 0.00 0.00 65 1015.7
20260502035502 41 346 1.0 2.0 0.00 0.00 0.00 65 1015.7
20260502035402 41 353 1.0 2.0 0.00 0.00 0.00 65 1015.8
20260502035306 41 360 1.0 2.0 0.00 0.00 0.00 65 1015.7
20260502035202 41 8 1.0 3.0 0.00 0.00 0.00 65 1015.7
20260502035102 41 9 1.0 3.0 0.00 0.00 0.00 66 1015.7
20260502035002 41 13 1.0 3.0 0.00 0.00 0.00 65 1015.7
20260502034902 41 20 1.0 3.0 0.00 0.00 0.00 65 1015.7
20260502034823 41 19 1.0 3.0 0.00 0.00 0.00 65 1015.7
20260502034702 41 19 1.0 3.0 0.00 0.00 0.00 66 1015.7
20260502034602 41 15 1.0 3.0 0.00 0.00 0.00 66 1015.7
20260502034502 41 15 1.0 3.0 0.00 0.00 0.00 66 1015.7
20260502034402 41 13 1.0 3.0 0.00 0.00 0.00 65 1015.6
20260502034302 41 8 1.0 3.0 0.00 0.00 0.00 67 1015.6
20260502034202 41 5 1.0 2.0 0.00 0.00 0.00 66 1015.6
20260502034102 41 6 1.0 2.0 0.00 0.00 0.00 66 1015.6
20260502034002 41 356 1.0 4.0 0.00 0.00 0.00 67 1015.6
20260502033902 41 357 1.0 4.0 0.00 0.00 0.00 66 1015.6
20260502033802 41 358 1.0 4.0 0.00 0.00 0.00 66 1015.6
20260502033702 41 356 1.0 4.0 0.00 0.00 0.00 67 1015.6
20260502033602 41 356 1.0 4.0 0.00 0.00 0.00 67 1015.6
20260502033502 41 356 1.0 4.0 0.00 0.00 0.00 66 1015.5
20260502033402 41 354 1.0 4.0 0.00 0.00 0.00 66 1015.5
20260502033323 41 352 1.0 4.0 0.00 0.00 0.00 66 1015.6
20260502033202 41 353 1.0 4.0 0.00 0.00 0.00 67 1015.6
20260502033102 41 353 1.0 4.0 0.00 0.00 0.00 67 1015.6
20260502033002 41 357 1.0 4.0 0.00 0.00 0.00 66 1015.6
20260502032903 41 355 1.0 4.0 0.00 0.00 0.00 67 1015.6
20260502032823 41 355 1.0 4.0 0.00 0.00 0.00 68 1015.6
20260502032702 41 355 1.0 4.0 0.00 0.00 0.00 68 1015.6
20260502032602 41 355 1.0 4.0 0.00 0.00 0.00 68 1015.6
20260502032502 41 355 1.0 4.0 0.00 0.00 0.00 68 1015.6
20260502032423 41 356 1.0 4.0 0.00 0.00 0.00 68 1015.6
20260502032305 41 359 1.0 4.0 0.00 0.00 0.00 69 1015.6
20260502032223 41 359 1.0 4.0 0.00 0.00 0.00 69 1015.6
20260502032102 41 360 0.0 4.0 0.00 0.00 0.00 69 1015.5
20260502032002 41 353 0.0 3.0 0.00 0.00 0.00 71 1015.5
20260502031902 41 351 0.0 2.0 0.00 0.00 0.00 71 1015.5
20260502031823 41 1 0.0 2.0 0.00 0.00 0.00 71 1015.5
20260502031702 41 339 0.0 1.0 0.00 0.00 0.00 73 1015.5
20260502031602 41 339 0.0 1.0 0.00 0.00 0.00 74 1015.5
20260502031502 41 339 0.0 1.0 0.00 0.00 0.00 72 1015.5
20260502031402 41 339 0.0 1.0 0.00 0.00 0.00 73 1015.5
20260502031302 41 339 0.0 1.0 0.00 0.00 0.00 74 1015.4
20260502031202 41 339 0.0 1.0 0.00 0.00 0.00 74 1015.4
20260502031102 41 339 0.0 1.0 0.00 0.00 0.00 74 1015.4
20260502031002 41 339 0.0 1.0 0.00 0.00 0.00 74 1015.4
20260502030902 41 339 0.0 1.0 0.00 0.00 0.00 73 1015.4
20260502030802 41 339 0.0 1.0 0.00 0.00 0.00 76 1015.4
20260502030702 41 0 0.0 0.0 0.00 0.00 0.00 76 1015.4
20260502030602 41 0 0.0 0.0 0.00 0.00 0.00 76 1015.4
20260502030502 41 0 0.0 0.0 0.00 0.00 0.00 76 1015.4
20260502030402 41 0 0.0 0.0 0.00 0.00 0.00 75 1015.4
20260502030302 41 0 0.0 0.0 0.00 0.00 0.00 74 1015.4
20260502030202 41 0 0.0 0.0 0.00 0.00 0.00 72 1015.4
20260502030002 41 0 0.0 0.0 0.00 0.00 0.00 72 1015.4
20260502025902 42 0 0.0 0.0 0.00 0.00 0.00 71 1015.4
20260502025802 41 0 0.0 0.0 0.00 0.00 0.00 70 1015.4
20260502025702 41 0 0.0 0.0 0.00 0.00 0.00 70 1015.4
20260502025602 42 0 0.0 0.0 0.00 0.00 0.00 70 1015.4
20260502025502 42 0 0.0 0.0 0.00 0.00 0.00 71 1015.4
20260502025402 42 0 0.0 0.0 0.00 0.00 0.00 71 1015.4
20260502025306 42 0 0.0 0.0 0.00 0.00 0.00 71 1015.4
20260502025223 42 0 0.0 0.0 0.00 0.00 0.00 71 1015.4
20260502025102 42 0 0.0 0.0 0.00 0.00 0.00 71 1015.4
20260502025002 42 0 0.0 0.0 0.00 0.00 0.00 70 1015.4
20260502024903 42 0 0.0 0.0 0.00 0.00 0.00 70 1015.4
20260502024802 42 0 0.0 0.0 0.00 0.00 0.00 68 1015.4
20260502024702 42 0 0.0 0.0 0.00 0.00 0.00 68 1015.4
20260502024602 42 0 0.0 0.0 0.00 0.00 0.00 68 1015.4
20260502024502 42 0 0.0 0.0 0.00 0.00 0.00 68 1015.4
20260502024423 42 0 0.0 0.0 0.00 0.00 0.00 68 1015.4
20260502024302 42 0 0.0 0.0 0.00 0.00 0.00 66 1015.4
20260502024202 42 0 0.0 0.0 0.00 0.00 0.00 67 1015.4
20260502024123 42 0 0.0 0.0 0.00 0.00 0.00 67 1015.4
20260502024024 42 0 0.0 0.0 0.00 0.00 0.00 68 1015.4
20260502023902 42 0 0.0 0.0 0.00 0.00 0.00 68 1015.4
20260502023802 42 0 0.0 0.0 0.00 0.00 0.00 67 1015.4
20260502023723 42 0 0.0 0.0 0.00 0.00 0.00 67 1015.4
20260502023602 42 339 0.0 1.0 0.00 0.00 0.00 67 1015.4
20260502023502 42 339 0.0 1.0 0.00 0.00 0.00 67 1015.4
20260502023402 42 339 0.0 1.0 0.00 0.00 0.00 67 1015.4
20260502023302 42 339 0.0 1.0 0.00 0.00 0.00 66 1015.4
20260502023202 42 339 0.0 1.0 0.00 0.00 0.00 66 1015.4
20260502023102 42 339 0.0 1.0 0.00 0.00 0.00 66 1015.4
20260502023002 42 339 0.0 1.0 0.00 0.00 0.00 66 1015.4
20260502022902 42 339 0.0 1.0 0.00 0.00 0.00 66 1015.4
20260502022802 42 339 0.0 1.0 0.00 0.00 0.00 66 1015.4
20260502022702 42 339 0.0 1.0 0.00 0.00 0.00 66 1015.4
20260502022602 42 339 0.0 1.0 0.00 0.00 0.00 66 1015.4
20260502022523 42 339 0.0 1.0 0.00 0.00 0.00 66 1015.4
20260502022402 42 339 0.0 1.0 0.00 0.00 0.00 66 1015.4
20260502022306 42 0 0.0 0.0 0.00 0.00 0.00 66 1015.4
20260502022202 42 0 0.0 0.0 0.00 0.00 0.00 65 1015.4
20260502022102 42 0 0.0 0.0 0.00 0.00 0.00 66 1015.4
20260502022002 42 0 0.0 0.0 0.00 0.00 0.00 66 1015.4
20260502021902 42 0 0.0 0.0 0.00 0.00 0.00 67 1015.4
20260502021802 42 0 0.0 0.0 0.00 0.00 0.00 67 1015.4
20260502021702 42 0 0.0 0.0 0.00 0.00 0.00 66 1015.4
20260502021602 42 0 0.0 0.0 0.00 0.00 0.00 66 1015.4
20260502021523 42 0 0.0 0.0 0.00 0.00 0.00 67 1015.4
20260502021402 42 340 0.0 1.0 0.00 0.00 0.00 67 1015.3
20260502021302 42 339 0.0 1.0 0.00 0.00 0.00 66 1015.3
20260502021202 42 339 0.0 1.0 0.00 0.00 0.00 66 1015.3
20260502021102 42 339 0.0 1.0 0.00 0.00 0.00 66 1015.3
20260502021002 42 339 0.0 1.0 0.00 0.00 0.00 66 1015.3
20260502020923 42 339 0.0 1.0 0.00 0.00 0.00 66 1015.3
20260502020823 42 339 0.0 1.0 0.00 0.00 0.00 66 1015.3
20260502020702 42 339 0.0 1.0 0.00 0.00 0.00 65 1015.3
20260502020602 42 339 0.0 1.0 0.00 0.00 0.00 65 1015.3
20260502020502 42 339 0.0 1.0 0.00 0.00 0.00 65 1015.3
20260502020402 42 339 0.0 1.0 0.00 0.00 0.00 66 1015.3
20260502020302 42 339 0.0 1.0 0.00 0.00 0.00 66 1015.3
20260502020202 42 339 0.0 2.0 0.00 0.00 0.00 66 1015.3
20260502020002 42 339 0.0 2.0 0.00 0.00 0.00 66 1015.3
20260502015902 42 339 0.0 2.0 0.00 0.00 0.00 67 1015.3
20260502015802 42 338 0.0 2.0 0.00 0.00 0.00 65 1015.3
20260502015702 42 337 0.0 2.0 0.00 0.00 0.00 66 1015.3
20260502015602 42 343 0.0 2.0 0.00 0.00 0.00 66 1015.3
20260502015503 42 344 1.0 2.0 0.00 0.00 0.00 65 1015.2
20260502015402 42 343 1.0 2.0 0.00 0.00 0.00 65 1015.2
20260502015305 42 343 1.0 2.0 0.00 0.00 0.00 65 1015.2
20260502015202 42 344 1.0 2.0 0.00 0.00 0.00 66 1015.2
20260502015102 42 344 1.0 2.0 0.00 0.00 0.00 65 1015.2
20260502015002 42 347 1.0 2.0 0.00 0.00 0.00 65 1015.2
20260502014902 42 345 1.0 3.0 0.00 0.00 0.00 65 1015.2
20260502014823 42 344 1.0 3.0 0.00 0.00 0.00 65 1015.2
20260502014702 42 345 1.0 3.0 0.00 0.00 0.00 65 1015.2
20260502014623 42 346 1.0 3.0 0.00 0.00 0.00 65 1015.2
20260502014502 42 345 1.0 3.0 0.00 0.00 0.00 64 1015.2
20260502014402 42 345 1.0 3.0 0.00 0.00 0.00 64 1015.2
20260502014323 42 345 1.0 3.0 0.00 0.00 0.00 64 1015.2
20260502014202 43 346 0.0 3.0 0.00 0.00 0.00 65 1015.1
20260502014102 42 346 0.0 3.0 0.00 0.00 0.00 65 1015.1
20260502014002 43 343 0.0 3.0 0.00 0.00 0.00 65 1015.1
20260502013902 43 346 0.0 2.0 0.00 0.00 0.00 64 1015.2
20260502013802 43 345 0.0 2.0 0.00 0.00 0.00 65 1015.2
20260502013723 43 339 0.0 2.0 0.00 0.00 0.00 64 1015.1
20260502013602 43 342 0.0 3.0 0.00 0.00 0.00 64 1015.1
20260502013502 43 338 1.0 3.0 0.00 0.00 0.00 65 1015.1
20260502013402 43 339 1.0 3.0 0.00 0.00 0.00 65 1015.1
20260502013323 43 339 1.0 3.0 0.00 0.00 0.00 65 1015.1
20260502013202 43 345 1.0 4.0 0.00 0.00 0.00 64 1015.1
20260502013102 43 345 1.0 4.0 0.00 0.00 0.00 64 1015.1
20260502013023 43 346 1.0 4.0 0.00 0.00 0.00 64 1015.0
20260502012902 43 346 1.0 4.0 0.00 0.00 0.00 64 1015.1
20260502012802 43 347 1.0 4.0 0.00 0.00 0.00 64 1015.1
20260502012702 43 350 1.0 4.0 0.00 0.00 0.00 63 1015.1
20260502012623 43 351 1.0 4.0 0.00 0.00 0.00 63 1015.1
20260502012502 43 353 1.0 4.0 0.00 0.00 0.00 63 1015.0
20260502012402 43 352 1.0 4.0 0.00 0.00 0.00 63 1015.0
20260502012306 43 352 1.0 4.0 0.00 0.00 0.00 63 1015.0
20260502012202 43 349 1.0 4.0 0.00 0.00 0.00 63 1015.0
20260502012102 43 349 1.0 4.0 0.00 0.00 0.00 64 1015.0
20260502012024 43 349 1.0 4.0 0.00 0.00 0.00 64 1015.0
20260502011902 43 349 1.0 4.0 0.00 0.00 0.00 64 1015.0
20260502011802 43 349 1.0 4.0 0.00 0.00 0.00 63 1015.0
20260502011723 43 350 1.0 4.0 0.00 0.00 0.00 63 1014.9
20260502011602 43 346 1.0 4.0 0.00 0.00 0.00 64 1014.9
20260502011502 43 347 0.0 4.0 0.00 0.00 0.00 63 1014.9
20260502011402 43 348 0.0 4.0 0.00 0.00 0.00 64 1014.9
20260502011302 43 348 0.0 4.0 0.00 0.00 0.00 64 1014.9
20260502011202 43 352 0.0 2.0 0.00 0.00 0.00 65 1014.9
20260502011102 43 352 0.0 1.0 0.00 0.00 0.00 65 1014.9
20260502011002 43 352 0.0 1.0 0.00 0.00 0.00 65 1014.9
20260502010902 43 350 0.0 1.0 0.00 0.00 0.00 65 1014.9
20260502010802 43 350 0.0 1.0 0.00 0.00 0.00 65 1014.9
20260502010702 43 350 0.0 1.0 0.00 0.00 0.00 65 1014.9
20260502010602 43 349 0.0 1.0 0.00 0.00 0.00 66 1014.8
20260502010502 43 349 0.0 1.0 0.00 0.00 0.00 65 1014.8
20260502010423 43 348 0.0 1.0 0.00 0.00 0.00 65 1014.8
20260502010302 43 347 0.0 1.0 0.00 0.00 0.00 65 1014.8
20260502010202 43 347 0.0 1.0 0.00 0.00 0.00 65 1014.8
20260502010123 43 347 0.0 1.0 0.00 0.00 0.00 65 1014.8
20260502010002 43 347 0.0 2.0 0.00 0.00 0.00 64 1014.8
20260502005902 43 351 0.0 3.0 0.00 0.00 0.00 65 1014.8
20260502005802 43 352 0.0 3.0 0.00 0.00 0.00 65 1014.8
20260502005702 43 351 1.0 3.0 0.00 0.00 0.00 64 1014.8
20260502005602 43 351 1.0 3.0 0.00 0.00 0.00 66 1014.8
20260502005502 43 351 1.0 3.0 0.00 0.00 0.00 65 1014.8
20260502005402 43 351 1.0 3.0 0.00 0.00 0.00 65 1014.8
20260502005305 43 351 1.0 3.0 0.00 0.00 0.00 64 1014.8
20260502005202 43 351 1.0 3.0 0.00 0.00 0.00 64 1014.8
20260502005102 43 350 1.0 3.0 0.00 0.00 0.00 64 1014.8
20260502005002 43 351 1.0 3.0 0.00 0.00 0.00 63 1014.7
20260502004902 43 350 0.0 2.0 0.00 0.00 0.00 64 1014.7
20260502004802 43 349 0.0 1.0 0.00 0.00 0.00 65 1014.7
20260502004702 43 349 0.0 1.0 0.00 0.00 0.00 65 1014.7
20260502004602 43 346 0.0 1.0 0.00 0.00 0.00 64 1014.7
20260502004502 43 344 0.0 1.0 0.00 0.00 0.00 64 1014.7
20260502004423 43 343 0.0 1.0 0.00 0.00 0.00 64 1014.7
20260502004302 43 337 0.0 1.0 0.00 0.00 0.00 64 1014.7
20260502004202 43 340 0.0 1.0 0.00 0.00 0.00 65 1014.7
20260502004102 43 339 0.0 1.0 0.00 0.00 0.00 65 1014.7
20260502004002 43 339 0.0 1.0 0.00 0.00 0.00 64 1014.7
20260502003902 43 342 0.0 1.0 0.00 0.00 0.00 64 1014.7
20260502003803 43 344 0.0 1.0 0.00 0.00 0.00 65 1014.7
20260502003723 43 345 0.0 1.0 0.00 0.00 0.00 65 1014.7
20260502003602 43 348 0.0 1.0 0.00 0.00 0.00 65 1014.7
20260502003502 43 352 0.0 1.0 0.00 0.00 0.00 64 1014.7
20260502003402 43 352 0.0 1.0 0.00 0.00 0.00 64 1014.7
20260502003302 43 352 0.0 1.0 0.00 0.00 0.00 64 1014.6
20260502003202 43 352 0.0 1.0 0.00 0.00 0.00 64 1014.6
20260502003123 43 352 0.0 1.0 0.00 0.00 0.00 64 1014.6
20260502003002 43 352 0.0 1.0 0.00 0.00 0.00 64 1014.6
20260502002902 43 352 0.0 1.0 0.00 0.00 0.00 64 1014.6
20260502002802 43 352 0.0 1.0 0.00 0.00 0.00 64 1014.6
20260502002702 43 352 0.0 1.0 0.00 0.00 0.00 64 1014.7
20260502002623 43 352 0.0 1.0 0.00 0.00 0.00 64 1014.7
20260502002502 43 352 0.0 1.0 0.00 0.00 0.00 64 1014.7
20260502002402 44 352 0.0 1.0 0.00 0.00 0.00 65 1014.7
20260502002305 44 352 0.0 1.0 0.00 0.00 0.00 65 1014.7
20260502002202 44 352 0.0 1.0 0.00 0.00 0.00 65 1014.6
20260502002102 44 352 0.0 1.0 0.00 0.00 0.00 65 1014.6
20260502002002 44 351 0.0 2.0 0.00 0.00 0.00 65 1014.7
20260502001923 44 349 0.0 2.0 0.00 0.00 0.00 64 1014.7
20260502001802 44 350 0.0 2.0 0.00 0.00 0.00 64 1014.6
20260502001702 44 351 0.0 2.0 0.00 0.00 0.00 64 1014.6
20260502001623 44 351 0.0 2.0 0.00 0.00 0.00 64 1014.6
20260502001502 44 351 0.0 2.0 0.00 0.00 0.00 64 1014.6
20260502001402 44 351 0.0 2.0 0.00 0.00 0.00 64 1014.6
20260502001302 44 351 0.0 2.0 0.00 0.00 0.00 64 1014.6
20260502001202 44 351 0.0 2.0 0.00 0.00 0.00 64 1014.6
20260502001102 44 351 0.0 2.0 0.00 0.00 0.00 63 1014.6
20260502001002 44 351 0.0 2.0 0.00 0.00 0.00 64 1014.6
20260502000902 44 359 0.0 2.0 0.00 0.00 0.00 64 1014.6
20260502000802 44 357 0.0 3.0 0.00 0.00 0.00 64 1014.6
20260502000702 44 355 0.0 3.0 0.00 0.00 0.00 64 1014.6
20260502000623 44 354 0.0 3.0 0.00 0.00 0.00 64 1014.6
20260502000502 44 355 0.0 3.0 0.00 0.00 0.00 65 1014.6
20260502000424 44 355 0.0 3.0 0.00 0.00 0.00 65 1014.5
20260502000325 44 355 0.0 3.0 0.00 0.00 0.00 64 1014.5
20260502000225 44 355 0.0 3.0 0.00 0.00 0.00 64 1014.5
20260502000023 44 355 0.0 3.0 0.00 0.00 0.00 63 1014.5
20260501235902 44 355 0.0 3.0 0.00 0.00 0.00 62 1014.5
20260501235802 44 356 0.0 3.0 0.00 0.00 0.00 62 1014.5
20260501235702 44 352 0.0 3.0 0.00 0.00 0.00 63 1014.5
20260501235602 44 353 0.0 2.0 0.00 0.00 0.00 63 1014.5
20260501235502 44 352 0.0 2.0 0.00 0.00 0.00 63 1014.5
20260501235402 44 347 0.0 2.0 0.00 0.00 0.00 64 1014.5
20260501235305 44 344 0.0 2.0 0.00 0.00 0.00 64 1014.5
20260501235202 44 345 0.0 2.0 0.00 0.00 0.00 64 1014.5
20260501235102 44 347 0.0 2.0 0.00 0.00 0.00 63 1014.5
20260501235002 44 348 1.0 2.0 0.00 0.00 0.00 63 1014.5
20260501234902 44 349 1.0 2.0 0.00 0.00 0.00 65 1014.4
20260501234802 44 351 1.0 2.0 0.00 0.00 0.00 64 1014.4
20260501234702 44 354 1.0 2.0 0.00 0.00 0.00 63 1014.4
20260501234602 44 354 1.0 2.0 0.00 0.00 0.00 64 1014.4
20260501234502 44 354 1.0 2.0 0.00 0.00 0.00 63 1014.4
20260501234402 44 354 1.0 3.0 0.00 0.00 0.00 63 1014.4
20260501234302 44 354 1.0 3.0 0.00 0.00 0.00 63 1014.3
20260501234202 44 352 1.0 3.0 0.00 0.00 0.00 62 1014.3
20260501234102 44 350 1.0 3.0 0.00 0.00 0.00 63 1014.4
20260501234002 44 352 1.0 4.0 0.00 0.00 0.00 63 1014.4
20260501233923 44 351 1.0 4.0 0.00 0.00 0.00 63 1014.3
20260501233802 44 351 1.0 4.0 0.00 0.00 0.00 62 1014.3
20260501233702 44 351 1.0 4.0 0.00 0.00 0.00 62 1014.3
20260501233602 44 351 1.0 4.0 0.00 0.00 0.00 62 1014.3
20260501233502 44 352 1.0 4.0 0.00 0.00 0.00 63 1014.3
20260501233402 44 351 1.0 4.0 0.00 0.00 0.00 62 1014.3
20260501233323 44 351 1.0 4.0 0.00 0.00 0.00 62 1014.3
20260501233202 44 355 1.0 4.0 0.00 0.00 0.00 63 1014.2
20260501233102 44 359 1.0 4.0 0.00 0.00 0.00 62 1014.3
20260501233002 44 357 1.0 4.0 0.00 0.00 0.00 63 1014.3
20260501232902 44 356 1.0 4.0 0.00 0.00 0.00 62 1014.3
20260501232802 44 350 1.0 4.0 0.00 0.00 0.00 62 1014.3
20260501232702 45 343 1.0 3.0 0.00 0.00 0.00 63 1014.3
20260501232602 44 357 1.0 6.0 0.00 0.00 0.00 63 1014.2
20260501232502 44 357 1.0 6.0 0.00 0.00 0.00 63 1014.2
20260501232402 44 354 1.0 6.0 0.00 0.00 0.00 63 1014.2
20260501232305 45 353 1.0 6.0 0.00 0.00 0.00 63 1014.2
20260501232202 44 353 1.0 6.0 0.00 0.00 0.00 62 1014.2
20260501232102 45 355 1.0 6.0 0.00 0.00 0.00 63 1014.2
20260501232002 45 355 1.0 6.0 0.00 0.00 0.00 62 1014.3
20260501231902 45 355 1.0 6.0 0.00 0.00 0.00 62 1014.3
20260501231823 45 357 1.0 6.0 0.00 0.00 0.00 62 1014.2
20260501231702 45 1 1.0 6.0 0.00 0.00 0.00 62 1014.2
20260501231602 45 351 1.0 2.0 0.00 0.00 0.00 62 1014.2
20260501231502 45 350 1.0 2.0 0.00 0.00 0.00 61 1014.2
20260501231423 45 353 1.0 2.0 0.00 0.00 0.00 62 1014.2
20260501231302 45 355 0.0 2.0 0.00 0.00 0.00 63 1014.2
20260501231202 45 355 0.0 2.0 0.00 0.00 0.00 63 1014.2
20260501231102 45 350 0.0 2.0 0.00 0.00 0.00 63 1014.2
20260501231002 45 350 0.0 2.0 0.00 0.00 0.00 62 1014.2
20260501230902 45 352 0.0 2.0 0.00 0.00 0.00 63 1014.2
20260501230802 45 353 0.0 2.0 0.00 0.00 0.00 63 1014.2
20260501230702 45 350 0.0 2.0 0.00 0.00 0.00 63 1014.2
20260501230602 45 354 1.0 2.0 0.00 0.00 0.00 63 1014.2
20260501230502 45 354 1.0 2.0 0.00 0.00 0.00 63 1014.2
20260501230423 45 354 0.0 2.0 0.00 0.00 0.00 62 1014.2
20260501230302 45 355 0.0 2.0 0.00 0.00 0.00 64 1014.2
20260501230202 45 353 0.0 2.0 0.00 0.00 0.00 62 1014.2
20260501230002 45 344 1.0 3.0 0.00 0.00 0.00 63 1014.2
20260501225902 45 345 1.0 3.0 0.00 0.00 0.00 63 1014.2
20260501225802 45 343 0.0 3.0 0.00 0.00 0.00 63 1014.2
20260501225723 45 345 1.0 3.0 0.00 0.00 0.00 62 1014.2
20260501225623 45 341 1.0 3.0 0.00 0.00 0.00 62 1014.2
20260501225502 45 344 1.0 3.0 0.00 0.00 0.00 61 1014.2
20260501225402 45 343 1.0 3.0 0.00 0.00 0.00 61 1014.2
20260501225305 45 346 1.0 4.0 0.00 0.00 0.00 62 1014.2
20260501225202 45 347 1.0 4.0 0.00 0.00 0.00 62 1014.2
20260501225102 45 349 1.0 4.0 0.00 0.00 0.00 61 1014.2
20260501225002 45 351 1.0 4.0 0.00 0.00 0.00 63 1014.1
20260501224902 45 350 1.0 4.0 0.00 0.00 0.00 62 1014.1
20260501224802 45 350 1.0 4.0 0.00 0.00 0.00 61 1014.1
20260501224702 45 350 1.0 4.0 0.00 0.00 0.00 62 1014.1
20260501224602 45 350 1.0 4.0 0.00 0.00 0.00 61 1014.1
20260501224502 45 353 1.0 4.0 0.00 0.00 0.00 60 1014.1
20260501224423 45 358 1.0 5.0 0.00 0.00 0.00 60 1014.1
20260501224302 45 360 1.0 5.0 0.00 0.00 0.00 60 1014.1
20260501224203 45 4 1.0 5.0 0.00 0.00 0.00 59 1014.1
20260501224102 45 5 1.0 5.0 0.00 0.00 0.00 60 1014.1
20260501224002 45 2 1.0 5.0 0.00 0.00 0.00 60 1014.1
20260501223902 45 359 2.0 5.0 0.00 0.00 0.00 59 1014.2
20260501223802 45 360 2.0 5.0 0.00 0.00 0.00 60 1014.2
20260501223702 45 359 2.0 5.0 0.00 0.00 0.00 59 1014.2
20260501223602 45 360 2.0 5.0 0.00 0.00 0.00 58 1014.2
20260501223523 45 360 1.0 5.0 0.00 0.00 0.00 59 1014.2
20260501223402 45 353 1.0 5.0 0.00 0.00 0.00 59 1014.2
20260501223302 45 352 2.0 5.0 0.00 0.00 0.00 58 1014.2
20260501223202 46 351 1.0 5.0 0.00 0.00 0.00 58 1014.2
20260501223102 46 350 1.0 5.0 0.00 0.00 0.00 58 1014.2
20260501223002 46 351 1.0 5.0 0.00 0.00 0.00 58 1014.2
20260501222923 46 351 1.0 5.0 0.00 0.00 0.00 58 1014.1
20260501222803 46 345 1.0 4.0 0.00 0.00 0.00 59 1014.2
20260501222702 46 345 1.0 4.0 0.00 0.00 0.00 58 1014.2
20260501222602 46 344 1.0 4.0 0.00 0.00 0.00 57 1014.1
20260501222502 46 342 1.0 4.0 0.00 0.00 0.00 58 1014.1
20260501222402 46 340 1.0 4.0 0.00 0.00 0.00 59 1014.1
20260501222305 46 337 1.0 3.0 0.00 0.00 0.00 60 1014.1
20260501222202 46 331 1.0 3.0 0.00 0.00 0.00 60 1014.1
20260501222102 46 323 1.0 3.0 0.00 0.00 0.00 59 1014.1
20260501222002 46 316 1.0 3.0 0.00 0.00 0.00 60 1014.1
20260501221902 46 319 1.0 5.0 0.00 0.00 0.00 59 1014.0
20260501221802 46 324 1.0 5.0 0.00 0.00 0.00 60 1014.0
20260501221702 46 324 1.0 5.0 0.00 0.00 0.00 59 1014.0
20260501221623 46 325 1.0 5.0 0.00 0.00 0.00 59 1014.0
20260501221523 46 327 1.0 5.0 0.00 0.00 0.00 58 1014.0
20260501221402 46 328 1.0 5.0 0.00 0.00 0.00 59 1014.0
20260501221302 46 327 1.0 5.0 0.00 0.00 0.00 58 1014.0
20260501221202 46 331 1.0 5.0 0.00 0.00 0.00 58 1014.0
20260501221102 46 340 1.0 5.0 0.00 0.00 0.00 59 1014.0
20260501221002 46 346 2.0 5.0 0.00 0.00 0.00 60 1013.9
20260501220902 46 346 1.0 5.0 0.00 0.00 0.00 59 1013.9
20260501220802 46 345 2.0 5.0 0.00 0.00 0.00 58 1013.9
20260501220724 46 345 2.0 5.0 0.00 0.00 0.00 59 1013.9
20260501220602 46 345 2.0 5.0 0.00 0.00 0.00 58 1014.0
20260501220523 46 346 2.0 5.0 0.00 0.00 0.00 60 1014.0
20260501220402 46 347 2.0 5.0 0.00 0.00 0.00 60 1014.0
20260501220302 46 348 2.0 5.0 0.00 0.00 0.00 59 1013.9
20260501220123 46 348 2.0 5.0 0.00 0.00 0.00 59 1013.9
20260501220002 46 346 1.0 5.0 0.00 0.00 0.00 59 1013.9
20260501215902 46 343 1.0 5.0 0.00 0.00 0.00 58 1013.9
20260501215802 46 342 1.0 4.0 0.00 0.00 0.00 60 1013.9
20260501215702 46 341 1.0 4.0 0.00 0.00 0.00 58 1013.9
20260501215602 46 339 1.0 4.0 0.00 0.00 0.00 59 1013.9
20260501215502 46 343 1.0 4.0 0.00 0.00 0.00 60 1013.9
20260501215402 46 347 1.0 4.0 0.00 0.00 0.00 60 1013.9
20260501215305 46 347 1.0 4.0 0.00 0.00 0.00 62 1013.9
20260501215202 46 347 1.0 4.0 0.00 0.00 0.00 61 1013.9
20260501215102 46 357 1.0 5.0 0.00 0.00 0.00 61 1013.9
20260501215002 46 354 1.0 5.0 0.00 0.00 0.00 61 1013.9
20260501214923 46 355 2.0 5.0 0.00 0.00 0.00 60 1013.9
20260501214802 46 357 2.0 5.0 0.00 0.00 0.00 59 1013.9
20260501214702 46 356 2.0 5.0 0.00 0.00 0.00 59 1013.9
20260501214602 46 355 2.0 5.0 0.00 0.00 0.00 59 1013.9
20260501214502 46 353 2.0 5.0 0.00 0.00 0.00 58 1013.9
20260501214402 46 353 1.0 5.0 0.00 0.00 0.00 57 1013.9
20260501214302 46 353 1.0 5.0 0.00 0.00 0.00 57 1013.9
20260501214202 46 352 1.0 5.0 0.00 0.00 0.00 56 1013.9
20260501214102 46 344 1.0 5.0 0.00 0.00 0.00 56 1013.9
20260501214002 46 319 1.0 7.0 0.00 0.00 0.00 57 1013.9
20260501213923 46 306 1.0 7.0 0.00 0.00 0.00 57 1013.9
20260501213802 47 272 1.0 7.0 0.00 0.00 0.00 55 1013.9
20260501213723 47 271 1.0 7.0 0.00 0.00 0.00 56 1013.9
20260501213602 47 250 1.0 7.0 0.00 0.00 0.00 56 1013.8
20260501213502 47 239 1.0 7.0 0.00 0.00 0.00 56 1013.8
20260501213402 47 234 1.0 7.0 0.00 0.00 0.00 58 1013.8
20260501213302 47 246 1.0 7.0 0.00 0.00 0.00 59 1013.8
20260501213202 47 273 1.0 7.0 0.00 0.00 0.00 56 1013.8
20260501213102 47 289 1.0 7.0 0.00 0.00 0.00 57 1013.8
20260501213002 47 332 1.0 3.0 0.00 0.00 0.00 57 1013.8
20260501212902 47 333 1.0 3.0 0.00 0.00 0.00 56 1013.8
20260501212802 47 337 1.0 3.0 0.00 0.00 0.00 58 1013.8
20260501212702 47 341 1.0 3.0 0.00 0.00 0.00 56 1013.7
20260501212602 47 345 1.0 3.0 0.00 0.00 0.00 55 1013.7
20260501212502 47 347 1.0 3.0 0.00 0.00 0.00 57 1013.8
20260501212408 47 348 1.0 3.0 0.00 0.00 0.00 57 1013.8
20260501212305 47 351 1.0 4.0 0.00 0.00 0.00 57 1013.6
20260501212203 47 352 1.0 4.0 0.00 0.00 0.00 56 1013.7
20260501212102 47 349 1.0 4.0 0.00 0.00 0.00 58 1013.7
20260501212002 47 351 1.0 5.0 0.00 0.00 0.00 56 1013.6
20260501211902 47 349 1.0 5.0 0.00 0.00 0.00 55 1013.6
20260501211823 47 348 1.0 5.0 0.00 0.00 0.00 55 1013.6
20260501211702 47 342 2.0 5.0 0.00 0.00 0.00 57 1013.6
20260501211623 47 343 2.0 5.0 0.00 0.00 0.00 57 1013.6
20260501211502 47 348 2.0 5.0 0.00 0.00 0.00 56 1013.6
20260501211402 47 347 2.0 5.0 0.00 0.00 0.00 55 1013.6
20260501211303 47 343 2.0 5.0 0.00 0.00 0.00 54 1013.6
20260501211202 47 340 2.0 5.0 0.00 0.00 0.00 54 1013.6
20260501211123 47 342 2.0 5.0 0.00 0.00 0.00 55 1013.6
20260501211023 47 341 1.0 5.0 0.00 0.00 0.00 54 1013.5
20260501210902 48 337 1.0 4.0 0.00 0.00 0.00 56 1013.5
20260501210802 48 341 1.0 4.0 0.00 0.00 0.00 55 1013.5
20260501210702 48 351 1.0 4.0 0.00 0.00 0.00 55 1013.5
20260501210602 48 346 1.0 3.0 0.00 0.00 0.00 56 1013.5
20260501210523 48 338 1.0 4.0 0.00 0.00 0.00 57 1013.5
20260501210403 48 346 1.0 4.0 0.00 0.00 0.00 55 1013.4
20260501210302 48 349 1.0 5.0 0.00 0.00 0.00 55 1013.4
20260501210202 48 352 2.0 5.0 0.00 0.00 0.00 53 1013.4
20260501210002 48 346 2.0 5.0 0.00 0.00 0.00 55 1013.4
20260501205902 48 346 2.0 5.0 0.00 0.00 0.00 54 1013.4
20260501205802 48 346 2.0 5.0 0.00 0.00 0.00 52 1013.4
20260501205702 48 344 2.0 5.0 0.00 0.00 0.00 52 1013.4
20260501205602 48 342 2.0 5.0 0.00 0.00 0.00 53 1013.5
20260501205502 48 342 2.0 5.0 0.00 0.00 0.00 54 1013.5
20260501205402 48 344 2.0 5.0 0.00 0.00 0.00 52 1013.4
20260501205305 48 345 2.0 5.0 0.00 0.00 0.00 53 1013.4
20260501205202 48 345 1.0 4.0 0.00 0.00 0.00 52 1013.4
20260501205123 48 346 1.0 4.0 0.00 0.00 0.00 55 1013.4
20260501205002 48 353 1.0 4.0 0.00 0.00 0.00 53 1013.4
20260501204902 48 354 1.0 4.0 0.00 0.00 0.00 53 1013.4
20260501204802 48 356 1.0 4.0 0.00 0.00 0.00 53 1013.4
20260501204702 48 358 1.0 4.0 0.00 0.00 0.00 56 1013.4
20260501204602 48 359 2.0 4.0 0.00 0.00 0.00 54 1013.3
20260501204523 48 358 2.0 4.0 0.00 0.00 0.00 55 1013.3
20260501204402 48 356 1.0 4.0 0.00 0.00 0.00 54 1013.3
20260501204302 48 355 1.0 4.0 0.00 0.00 0.00 54 1013.3
20260501204202 48 354 1.0 3.0 0.00 0.00 0.00 54 1013.3
20260501204102 48 355 1.0 3.0 0.00 0.00 0.00 56 1013.4
20260501204002 48 354 1.0 3.0 0.00 0.00 0.00 56 1013.4
20260501203902 48 352 1.0 3.0 0.00 0.00 0.00 56 1013.3
20260501203802 48 350 1.0 3.0 0.00 0.00 0.00 56 1013.4
20260501203702 48 348 1.0 3.0 0.00 0.00 0.00 53 1013.4
20260501203602 48 349 1.0 3.0 0.00 0.00 0.00 55 1013.3
20260501203502 48 351 1.0 3.0 0.00 0.00 0.00 55 1013.3
20260501203402 48 349 1.0 3.0 0.00 0.00 0.00 56 1013.3
20260501203302 48 343 1.0 3.0 0.00 0.00 0.00 55 1013.3
20260501203202 48 341 1.0 3.0 0.00 0.00 0.00 57 1013.3
20260501203102 47 340 1.0 3.0 0.00 0.00 0.00 56 1013.3
20260501203002 47 339 1.0 3.0 0.00 0.00 0.00 54 1013.3
20260501202902 47 342 1.0 3.0 0.00 0.00 0.00 54 1013.3
20260501202802 47 345 1.0 3.0 0.00 0.00 0.00 55 1013.3
20260501202723 47 347 1.0 3.0 0.00 0.00 0.00 55 1013.3
20260501202602 47 349 1.0 3.0 0.00 0.00 0.00 55 1013.4
20260501202502 47 350 1.0 3.0 0.00 0.00 0.00 54 1013.4
20260501202402 47 351 1.0 5.0 0.00 0.00 0.00 56 1013.4
20260501202306 47 354 1.0 5.0 0.00 0.00 0.00 56 1013.4
20260501202223 47 353 1.0 5.0 0.00 0.00 0.00 56 1013.4
20260501202102 47 351 1.0 5.0 0.00 0.00 0.00 55 1013.3
20260501202002 47 349 1.0 5.0 0.00 0.00 0.00 56 1013.4
20260501201902 47 348 1.0 5.0 0.00 0.00 0.00 55 1013.4
20260501201802 47 343 1.0 5.0 0.00 0.00 0.00 55 1013.4
20260501201702 47 347 2.0 6.0 0.00 0.00 0.00 54 1013.4
20260501201602 47 349 2.0 7.0 0.00 0.00 0.00 55 1013.4
20260501201502 47 347 2.0 7.0 0.00 0.00 0.00 54 1013.4
20260501201402 48 347 2.0 7.0 0.00 0.00 0.00 53 1013.4
20260501201302 48 347 2.0 7.0 0.00 0.00 0.00 53 1013.4
20260501201202 48 347 2.0 7.0 0.00 0.00 0.00 55 1013.4
20260501201123 48 346 2.0 7.0 0.00 0.00 0.00 55 1013.4
20260501201023 48 346 2.0 7.0 0.00 0.00 0.00 54 1013.4
20260501200902 48 348 2.0 7.0 0.00 0.00 0.00 55 1013.4
20260501200802 48 355 2.0 7.0 0.00 0.00 0.00 53 1013.3
20260501200702 48 351 2.0 7.0 0.00 0.00 0.00 52 1013.3
20260501200603 48 345 2.0 4.0 0.00 0.00 0.00 53 1013.3
20260501200502 48 344 1.0 4.0 0.00 0.00 0.00 52 1013.2
20260501200402 48 337 1.0 4.0 0.00 0.00 0.00 52 1013.2
20260501200302 49 338 1.0 4.0 0.00 0.00 0.00 51 1013.2
20260501200223 49 342 2.0 4.0 0.00 0.00 0.00 51 1013.1
20260501200023 49 356 1.0 6.0 0.00 0.00 0.00 51 1013.1
20260501195902 49 355 1.0 6.0 0.00 0.00 0.00 51 1013.2
20260501195802 49 345 1.0 6.0 0.00 0.00 0.00 51 1013.2
20260501195702 49 347 1.0 6.0 0.00 0.00 0.00 51 1013.2
20260501195602 49 354 1.0 6.0 0.00 0.00 0.00 51 1013.2
20260501195502 49 3 1.0 6.0 0.00 0.00 0.00 54 1013.1
20260501195402 49 14 1.0 6.0 0.00 0.00 0.00 53 1013.1
20260501195323 49 13 1.0 6.0 0.00 0.00 0.00 53 1013.1
20260501195202 49 8 1.0 5.0 0.00 0.00 0.00 52 1013.2
20260501195102 49 7 1.0 3.0 0.00 0.00 0.00 53 1013.2
20260501195002 49 2 1.0 3.0 0.00 0.00 0.00 53 1013.2
20260501194923 49 357 1.0 3.0 0.00 0.00 0.00 53 1013.2
20260501194802 49 355 1.0 3.0 0.00 0.00 0.00 52 1013.2
20260501194702 49 352 1.0 3.0 0.00 0.00 0.00 52 1013.2
20260501194603 49 350 1.0 3.0 0.00 0.00 0.00 52 1013.2
20260501194502 49 346 1.0 3.0 0.00 0.00 0.00 51 1013.2
20260501194402 49 337 1.0 3.0 0.00 0.00 0.00 55 1013.2
20260501194302 49 335 1.0 3.0 0.00 0.00 0.00 53 1013.2
20260501194202 49 336 1.0 4.0 0.00 0.00 0.00 53 1013.2
20260501194102 49 338 1.0 4.0 0.00 0.00 0.00 52 1013.1
20260501194023 49 344 1.0 4.0 0.00 0.00 0.00 52 1013.1
20260501193902 49 351 1.0 4.0 0.00 0.00 0.00 53 1013.1
20260501193802 49 351 1.0 4.0 0.00 0.00 0.00 50 1013.1
20260501193702 49 353 1.0 4.0 0.00 0.00 0.00 52 1013.1
20260501193602 49 354 1.0 4.0 0.00 0.00 0.00 51 1013.1
20260501193502 49 354 2.0 4.0 0.00 0.00 0.00 52 1013.1
20260501193402 49 356 2.0 4.0 0.00 0.00 0.00 50 1013.1
20260501193302 49 354 2.0 4.0 0.00 0.00 0.00 52 1013.1
20260501193223 49 355 2.0 4.0 0.00 0.00 0.00 52 1013.1
20260501193102 49 354 2.0 5.0 0.00 0.00 0.00 53 1013.0
20260501193002 49 350 2.0 5.0 0.00 0.00 0.00 52 1013.0
20260501192902 49 352 2.0 5.0 0.00 0.00 0.00 50 1013.0
20260501192823 49 351 2.0 5.0 0.00 0.00 0.00 52 1013.0
20260501192723 49 349 2.0 5.0 0.00 0.00 0.00 51 1013.0
20260501192602 49 349 2.0 5.0 0.00 0.00 0.00 51 1013.0
20260501192502 49 347 2.0 5.0 0.00 0.00 0.00 50 1013.0
20260501192402 49 351 2.0 6.0 0.00 0.00 0.00 51 1013.1
20260501192306 49 352 2.0 6.0 0.00 0.00 0.00 53 1013.0
20260501192202 49 352 2.0 6.0 0.00 0.00 0.00 51 1013.0
20260501192102 49 352 2.0 6.0 0.00 0.00 0.00 54 1013.0
20260501192002 49 350 2.0 6.0 0.00 0.00 0.00 52 1013.0
20260501191923 49 350 2.0 6.0 0.00 0.00 0.00 52 1012.9
20260501191802 49 353 2.0 6.0 0.00 0.00 0.00 54 1013.1
20260501191702 49 356 2.0 6.0 0.00 0.00 0.00 52 1013.1
20260501191623 49 357 2.0 6.0 0.00 0.00 0.00 52 1013.0
20260501191523 49 357 2.0 6.0 0.00 0.00 0.00 51 1013.0
20260501191402 49 355 1.0 6.0 0.00 0.00 0.00 50 1013.0
20260501191302 49 2 2.0 5.0 0.00 0.00 0.00 50 1013.1
20260501191202 49 2 2.0 5.0 0.00 0.00 0.00 51 1013.1
20260501191102 49 4 1.0 5.0 0.00 0.00 0.00 52 1013.1
20260501191002 49 5 1.0 5.0 0.00 0.00 0.00 53 1013.0
20260501190902 49 358 1.0 5.0 0.00 0.00 0.00 51 1013.0
20260501190802 49 1 1.0 5.0 0.00 0.00 0.00 51 1013.0
20260501190702 49 358 1.0 5.0 0.00 0.00 0.00 52 1013.0
20260501190602 48 356 1.0 3.0 0.00 0.00 0.00 53 1013.0
20260501190502 48 356 1.0 3.0 0.00 0.00 0.00 51 1013.0
20260501190402 48 356 1.0 3.0 0.00 0.00 0.00 53 1013.0
20260501190302 48 349 1.0 5.0 0.00 0.00 0.00 53 1013.0
20260501190202 48 348 2.0 5.0 0.00 0.00 0.00 52 1013.0
20260501190002 48 352 2.0 5.0 0.00 0.00 0.00 53 1013.1
20260501185902 48 354 2.0 5.0 0.00 0.00 0.00 53 1013.1
20260501185802 48 351 2.0 5.0 0.00 0.00 0.00 53 1013.0
20260501185702 48 351 1.0 5.0 0.00 0.00 0.00 53 1013.0
20260501185602 48 351 1.0 5.0 0.00 0.00 0.00 52 1013.0
20260501185502 48 351 1.0 5.0 0.00 0.00 0.00 52 1013.0
20260501185402 48 352 1.0 5.0 0.00 0.00 0.00 51 1013.0
20260501185305 49 1 1.0 5.0 0.00 0.00 0.00 51 1013.0
20260501185202 49 13 1.0 4.0 0.00 0.00 0.00 52 1013.0
20260501185102 49 21 1.0 4.0 0.00 0.00 0.00 52 1013.0
20260501185002 49 26 1.0 4.0 0.00 0.00 0.00 54 1012.9
20260501184902 49 21 1.0 4.0 0.00 0.00 0.00 52 1012.9
20260501184802 49 14 2.0 6.0 0.00 0.00 0.00 52 1012.8
20260501184702 49 11 2.0 6.0 0.00 0.00 0.00 53 1012.8
20260501184623 49 9 2.0 7.0 0.00 0.00 0.00 51 1012.8
20260501184502 49 11 2.0 7.0 0.00 0.00 0.00 52 1012.8
20260501184403 49 13 2.0 7.0 0.00 0.00 0.00 52 1012.8
20260501184302 49 4 2.0 7.0 0.00 0.00 0.00 52 1012.8
20260501184202 49 3 2.0 7.0 0.00 0.00 0.00 52 1012.8
20260501184102 49 357 2.0 7.0 0.00 0.00 0.00 53 1012.8
20260501184002 49 356 2.0 7.0 0.00 0.00 0.00 51 1012.8
20260501183902 49 357 2.0 7.0 0.00 0.00 0.00 52 1012.8
20260501183823 49 358 2.0 7.0 0.00 0.00 0.00 52 1012.8
20260501183702 49 4 2.0 7.0 0.00 0.00 0.00 53 1012.7
20260501183602 49 9 2.0 6.0 0.00 0.00 0.00 53 1012.7
20260501183502 49 3 2.0 6.0 0.00 0.00 0.00 53 1012.8
20260501183402 49 359 2.0 6.0 0.00 0.00 0.00 50 1012.8
20260501183302 49 360 1.0 6.0 0.00 0.00 0.00 50 1012.8
20260501183223 49 354 1.0 5.0 0.00 0.00 0.00 50 1012.8
20260501183123 49 351 1.0 5.0 0.00 0.00 0.00 50 1012.8
20260501183002 49 355 1.0 5.0 0.00 0.00 0.00 52 1012.8
20260501182902 48 359 2.0 5.0 0.00 0.00 0.00 54 1012.9
20260501182802 48 359 2.0 5.0 0.00 0.00 0.00 51 1012.9
20260501182702 48 353 2.0 5.0 0.00 0.00 0.00 55 1012.9
20260501182602 48 353 2.0 5.0 0.00 0.00 0.00 52 1012.9
20260501182523 48 354 2.0 5.0 0.00 0.00 0.00 52 1012.9
20260501182402 48 360 2.0 5.0 0.00 0.00 0.00 52 1012.8
20260501182306 48 1 2.0 5.0 0.00 0.00 0.00 51 1012.8
20260501182202 48 5 2.0 5.0 0.00 0.00 0.00 53 1012.9
20260501182102 48 9 2.0 5.0 0.00 0.00 0.00 50 1012.8
20260501182002 48 7 2.0 5.0 0.00 0.00 0.00 52 1012.8
20260501181902 48 7 2.0 4.0 0.00 0.00 0.00 53 1012.8
20260501181802 48 6 2.0 5.0 0.00 0.00 0.00 54 1012.8
20260501181702 48 6 2.0 5.0 0.00 0.00 0.00 55 1012.8
20260501181602 48 3 2.0 5.0 0.00 0.00 0.00 54 1012.8
20260501181502 48 359 2.0 5.0 0.00 0.00 0.00 55 1012.8
20260501181402 48 357 2.0 5.0 0.00 0.00 0.00 54 1012.9
20260501181302 48 355 3.0 5.0 0.00 0.00 0.00 53 1012.9
20260501181202 48 352 3.0 6.0 0.00 0.00 0.00 53 1012.8
20260501181102 48 350 3.0 6.0 0.00 0.00 0.00 53 1012.8
20260501181002 48 352 3.0 6.0 0.00 0.00 0.00 54 1012.8
20260501180902 48 352 3.0 6.0 0.00 0.00 0.00 52 1012.8
20260501180823 48 353 2.0 6.0 0.00 0.00 0.00 52 1012.8
20260501180723 48 355 2.0 6.0 0.00 0.00 0.00 53 1012.8
20260501180602 48 355 2.0 6.0 0.00 0.00 0.00 51 1012.8
20260501180502 48 357 2.0 6.0 0.00 0.00 0.00 52 1012.8
20260501180402 48 356 2.0 6.0 0.00 0.00 0.00 51 1012.8
20260501180302 48 359 2.0 6.0 0.00 0.00 0.00 55 1012.8
20260501180202 49 358 2.0 4.0 0.00 0.00 0.00 53 1012.8
20260501180002 49 355 2.0 4.0 0.00 0.00 0.00 51 1012.7
20260501175902 49 357 2.0 4.0 0.00 0.00 0.00 51 1012.8
20260501175802 49 358 2.0 4.0 0.00 0.00 0.00 50 1012.8
20260501175702 49 356 2.0 4.0 0.00 0.00 0.00 50 1012.8
20260501175623 49 353 2.0 4.0 0.00 0.00 0.00 50 1012.8
20260501175502 49 352 2.0 4.0 0.00 0.00 0.00 49 1012.8
20260501175402 49 351 2.0 4.0 0.00 0.00 0.00 51 1012.7
20260501175306 49 350 2.0 4.0 0.00 0.00 0.00 51 1012.6
20260501175202 49 356 2.0 4.0 0.00 0.00 0.00 50 1012.6
20260501175102 49 355 2.0 4.0 0.00 0.00 0.00 50 1012.7
20260501175002 49 356 2.0 4.0 0.00 0.00 0.00 50 1012.7
20260501174902 49 351 2.0 4.0 0.00 0.00 0.00 50 1012.7
20260501174802 49 346 2.0 4.0 0.00 0.00 0.00 49 1012.7
20260501174702 49 345 1.0 4.0 0.00 0.00 0.00 52 1012.7
20260501174602 49 346 1.0 4.0 0.00 0.00 0.00 50 1012.7
20260501174523 49 341 2.0 4.0 0.00 0.00 0.00 50 1012.7
20260501174402 49 344 1.0 4.0 0.00 0.00 0.00 50 1012.7
20260501174302 49 350 1.0 4.0 0.00 0.00 0.00 50 1012.7
20260501174223 49 350 1.0 4.0 0.00 0.00 0.00 48 1012.7
20260501174102 49 344 1.0 4.0 0.00 0.00 0.00 49 1012.7
20260501174002 49 348 1.0 5.0 0.00 0.00 0.00 54 1012.7
20260501173902 49 356 1.0 5.0 0.00 0.00 0.00 54 1012.7
20260501173802 49 358 1.0 5.0 0.00 0.00 0.00 52 1012.7
20260501173702 49 358 2.0 5.0 0.00 0.00 0.00 55 1012.7
20260501173602 49 357 2.0 5.0 0.00 0.00 0.00 53 1012.7
20260501173502 48 360 2.0 5.0 0.00 0.00 0.00 53 1012.7
20260501173402 48 359 2.0 5.0 0.00 0.00 0.00 53 1012.7
20260501173302 48 359 2.0 5.0 0.00 0.00 0.00 52 1012.7
20260501173202 48 360 2.0 5.0 0.00 0.00 0.00 53 1012.7
20260501173102 48 1 2.0 5.0 0.00 0.00 0.00 52 1012.7
20260501173002 48 357 2.0 5.0 0.00 0.00 0.00 54 1012.7
20260501172902 48 356 2.0 5.0 0.00 0.00 0.00 55 1012.7
20260501172802 48 357 2.0 5.0 0.00 0.00 0.00 52 1012.7
20260501172702 48 358 2.0 5.0 0.00 0.00 0.00 53 1012.7
20260501172602 48 358 2.0 5.0 0.00 0.00 0.00 54 1012.7
20260501172502 48 360 2.0 5.0 0.00 0.00 0.00 53 1012.7
20260501172402 48 358 2.0 5.0 0.00 0.00 0.00 54 1012.7
20260501172305 48 357 2.0 5.0 0.00 0.00 0.00 55 1012.7
20260501172203 48 353 2.0 5.0 0.00 0.00 0.00 52 1012.7
20260501172102 48 352 2.0 5.0 0.00 0.00 0.00 53 1012.7
20260501172002 48 348 2.0 4.0 0.00 0.00 0.00 54 1012.7